S&P 500 INDEX

Index WKN: A0E4N1

2.726,89
+0,95 % +25,56
Börse Chicago Board Options Exchange
Stand 22.02.18 - 17:41:22 Uhr
Enthaltene Werte 505
Tages-Vol. --
Realtime  
Name Aktuell Börse Diff. Diff. % Datum Zeit Tages-Vol.
21st Century Fox 36,79 Nasdaq +0,23   +0,63 % 22.02. 17:41 10,58 Mio.
21st Century Fox 'A' 37,25 Nasdaq +0,19   +0,51 % 22.02. 17:41 43,66 Mio.
3M CO 236,59 NYSE +4,41   +1,90 % 22.02. 17:41 125,38 Mio.
Abbott Laboratories 59,275 NYSE +0,28   +0,48 % 22.02. 17:41 62,14 Mio.
AbbVie 119,34 NYSE +1,43   +1,21 % 22.02. 17:41 140,52 Mio.
Accenture 161,48 NYSE +1,02   +0,64 % 22.02. 17:41 50,68 Mio.
ACTIVISION BLIZZARD 69,95 Nasdaq -0,27   -0,38 % 22.02. 17:41 120,48 Mio.
Acuity Brands 147,33 NYSE -0,25   -0,17 % 22.02. 17:41 14,72 Mio.
Adobe Systems 203,67 Nasdaq +1,58   +0,78 % 22.02. 17:41 61,46 Mio.
Advance Auto Parts 112,10 NYSE -1,90   -1,67 % 22.02. 17:41 42,35 Mio.
Advanced Micro Devices 11,965 Nasdaq +0,24   +2,09 % 22.02. 17:41 225,25 Mio.
AES Corp 10,37 NYSE +0,14   +1,37 % 22.02. 17:41 16,81 Mio.
Aetna 176,18 NYSE +0,41   +0,23 % 22.02. 17:41 36,00 Mio.
Affiliated Managers 190,005 NYSE +0,97   +0,52 % 22.02. 17:40 12,74 Mio.
AFLAC 89,03 NYSE +0,15   +0,17 % 22.02. 17:41 27,47 Mio.
Agilent Technologies 71,56 NYSE +0,31   +0,44 % 22.02. 17:41 29,10 Mio.
AIG 60,715 NYSE +0,54   +0,89 % 22.02. 17:41 56,82 Mio.
Air Products & Chem 162,70 NYSE +1,94   +1,21 % 22.02. 17:41 19,27 Mio.
Akamai Technologies 67,11 Nasdaq +0,79   +1,19 % 22.02. 17:41 13,15 Mio.
ALASKA AIR GROUP 65,26 NYSE +0,57   +0,88 % 22.02. 17:40 24,42 Mio.
Albemarle Co. 114,50 NYSE +1,49   +1,32 % 22.02. 17:41 30,37 Mio.
Alexandria Real Est. Equ. 120,48 NYSE +2,05   +1,73 % 22.02. 17:40 16,85 Mio.
Alexion Pharma 116,86 Nasdaq -0,24   -0,20 % 22.02. 17:40 30,50 Mio.
Align Technology 259,44 Nasdaq +7,30   +2,90 % 22.02. 17:40 78,63 Mio.
Allegion 87,52 NYSE +0,80   +0,92 % 22.02. 17:40 32,91 Mio.
Allergan PLC 161,325 NYSE +2,02   +1,26 % 22.02. 17:41 81,19 Mio.
Alliance Data Systems Co. 244,12 NYSE +4,53   +1,89 % 22.02. 17:40 46,12 Mio.
Alliant Energy Co. 38,845 NYSE +0,23   +0,58 % 22.02. 17:41 18,26 Mio.
Allstate Corp 93,94 NYSE +0,53   +0,57 % 22.02. 17:41 29,40 Mio.
Alphabet 1.118,815 Nasdaq +7,47   +0,67 % 22.02. 17:41 275,85 Mio.
Alphabet A 1.120,645 Nasdaq +6,89   +0,62 % 22.02. 17:41 257,13 Mio.
Altria Group 64,39 NYSE +0,46   +0,72 % 22.02. 17:41 93,59 Mio.
Amazon Com 1.492,49 Nasdaq +9,57   +0,65 % 22.02. 17:41 2,04 Mrd.
Ameren Corp 55,13 NYSE +0,73   +1,34 % 22.02. 17:41 28,90 Mio.
American Airlines Group 53,23 Nasdaq +0,45   +0,85 % 22.02. 17:41 54,27 Mio.
American Electric Power 66,05 NYSE +0,47   +0,72 % 22.02. 17:41 46,13 Mio.
American Express 97,8287 NYSE +0,33   +0,34 % 22.02. 17:41 92,25 Mio.
American Tower 140,21 NYSE +2,77   +2,02 % 22.02. 17:41 78,26 Mio.
American Water Works 79,41 NYSE +0,56   +0,71 % 22.02. 17:41 17,46 Mio.
Ameriprise Financial 160,49 NYSE +1,11   +0,70 % 22.02. 17:41 24,12 Mio.
AmerisourceBergen Co. 97,3599 NYSE -1,21   -1,23 % 22.02. 17:41 47,67 Mio.
AMETEK 76,82 NYSE +0,47   +0,62 % 22.02. 17:40 16,17 Mio.
Amgen 184,37 Nasdaq +1,94   +1,06 % 22.02. 17:40 150,58 Mio.
Amphenol 'A' 91,01 NYSE +0,59   +0,65 % 22.02. 17:41 20,47 Mio.
Anadarko Petroleum 59,16 NYSE +1,89   +3,30 % 22.02. 17:41 80,59 Mio.
Analog Devices 89,00 Nasdaq +0,59   +0,67 % 22.02. 17:41 36,82 Mio.
Andeavor 93,92 NYSE +1,37   +1,48 % 22.02. 17:40 23,64 Mio.
Ansys 157,69 Nasdaq -5,85   -3,58 % 22.02. 17:41 47,38 Mio.
Anthem Inc 233,88 NYSE +1,85   +0,80 % 22.02. 17:41 43,19 Mio.
AON 137,98 NYSE -1,39   -1,00 % 22.02. 17:41 47,38 Mio.
Apache Corp 36,031 NYSE -1,17   -3,14 % 22.02. 17:41 203,93 Mio.
Apartment Inv & Mgt 38,45 NYSE +0,45   +1,18 % 22.02. 17:41 9,79 Mio.
Apple 173,63 Nasdaq +2,56   +1,50 % 22.02. 17:41 1,97 Mrd.
Applied Materials 56,75 Nasdaq +0,62   +1,10 % 22.02. 17:41 253,56 Mio.
Aptiv 93,7599 NYSE +1,21   +1,31 % 22.02. 17:40 24,82 Mio.
Archer Daniels Mid 42,11 NYSE -0,01   -0,02 % 22.02. 17:40 29,49 Mio.
Arconic Inc 24,825 NYSE +0,17   +0,67 % 22.02. 17:41 17,39 Mio.
Assurant 88,74 NYSE +0,48   +0,54 % 22.02. 17:39 3,52 Mio.
AT&T Inc 36,97 NYSE +0,66   +1,82 % 22.02. 17:41 219,75 Mio.
Autodesk 114,25 Nasdaq +1,88   +1,67 % 22.02. 17:41 40,59 Mio.
Automatic Data Process 116,415 Nasdaq +0,32   +0,27 % 22.02. 17:40 25,11 Mio.
Autozone 723,62 NYSE +4,13   +0,57 % 22.02. 17:40 33,48 Mio.
Avalonbay Communities 157,05 NYSE +1,03   +0,66 % 22.02. 17:41 31,11 Mio.
Avery Dennison 118,151 NYSE +1,23   +1,05 % 22.02. 17:41 17,88 Mio.
Baker Hughes 'A' 28,04 NYSE +1,28   +4,78 % 22.02. 17:41 65,74 Mio.
Ball Corp 39,74 NYSE +0,60   +1,53 % 22.02. 17:41 17,32 Mio.
Bank of America 32,0866 NYSE +0,22   +0,68 % 22.02. 17:41 586,30 Mio.
Bank of New York Mellon 56,75 NYSE +0,30   +0,53 % 22.02. 17:41 64,61 Mio.
Baxter International 68,07 NYSE +1,02   +1,52 % 22.02. 17:41 57,24 Mio.
BB & T Corp 55,35 NYSE +0,26   +0,47 % 22.02. 17:41 38,17 Mio.
Becton Dickinson 220,31 NYSE +1,61   +0,74 % 22.02. 17:40 27,98 Mio.
Berkshire Hathaway 'B' 203,05 NYSE +2,03   +1,01 % 22.02. 17:41 171,18 Mio.
Best Buy 71,64 NYSE +0,85   +1,20 % 22.02. 17:41 44,50 Mio.
Biogen Idec 290,795 Nasdaq +4,70   +1,64 % 22.02. 17:40 116,98 Mio.
Blackrock 545,00 NYSE +1,44   +0,26 % 22.02. 17:40 72,21 Mio.
Boeing 357,162 NYSE +4,79   +1,36 % 22.02. 17:41 356,01 Mio.
BorgWarner 52,4975 NYSE +0,41   +0,78 % 22.02. 17:40 16,56 Mio.
Boston Properties 119,58 NYSE +3,73   +3,22 % 22.02. 17:41 21,35 Mio.
Boston Scientific 26,85 NYSE +0,08   +0,30 % 22.02. 17:41 52,14 Mio.
BRIGHTHOUSE FINANC.DL-,01 57,00 Nasdaq -0,44   -0,77 % 22.02. 17:40 10,58 Mio.
Bristol-Myers Squibb 66,62 NYSE +0,09   +0,14 % 22.02. 17:41 107,33 Mio.
Broadcom 252,93 Nasdaq +4,31   +1,73 % 22.02. 17:41 115,94 Mio.
Brown-Forman Corp 'B' 67,945 NYSE +0,23   +0,33 % 22.02. 17:40 4,68 Mio.
C.H. Robinson Worldwide 90,80 Nasdaq +0,62   +0,69 % 22.02. 17:40 19,19 Mio.
CA 35,01 Nasdaq +0,32   +0,92 % 22.02. 17:41 30,30 Mio.
Cabot Oil & Gas 23,92 NYSE +0,67   +2,88 % 22.02. 17:41 56,79 Mio.
Cadence Design Systems 39,17 Nasdaq -0,09   -0,23 % 22.02. 17:41 17,98 Mio.
Campbell Soup 44,11 NYSE +1,21   +2,82 % 22.02. 17:41 65,47 Mio.
Capital One 98,33 NYSE +0,94   +0,97 % 22.02. 17:40 37,62 Mio.
Cardinal Health 69,07 NYSE +0,26   +0,38 % 22.02. 17:41 35,21 Mio.
Carmax 61,92 NYSE +0,94   +1,54 % 22.02. 17:40 25,69 Mio.
Carnival 68,8975 NYSE -0,23   -0,34 % 22.02. 17:41 52,97 Mio.
Caterpillar 159,04 NYSE +3,81   +2,45 % 22.02. 17:41 228,97 Mio.
Cboe Global Markets 110,6252 Nasdaq -0,67   -0,61 % 22.02. 17:40 23,54 Mio.
CBRE Group 'A' 45,12 NYSE +0,64   +1,44 % 22.02. 17:41 37,19 Mio.
CBS 'B' 55,27 NYSE -0,11   -0,20 % 22.02. 17:41 35,90 Mio.
Celgene 95,087 Nasdaq +1,20   +1,27 % 22.02. 17:41 106,09 Mio.
Centene Co. 100,70 NYSE +0,50   +0,50 % 22.02. 17:40 23,34 Mio.
CenterPoint Energy 27,265 NYSE +1,03   +3,95 % 22.02. 17:41 48,48 Mio.
CenturyLink 18,315 NYSE +0,41   +2,32 % 22.02. 17:41 49,01 Mio.
Cerner 64,03 Nasdaq +0,66   +1,04 % 22.02. 17:41 18,42 Mio.
CF Industries 43,63 NYSE +1,00   +2,35 % 22.02. 17:40 35,20 Mio.
Charles Schwab 52,54 NYSE +0,24   +0,46 % 22.02. 17:41 70,74 Mio.
Charter Communications 362,24 Nasdaq +1,27   +0,35 % 22.02. 17:41 34,38 Mio.
Chesapeake Energy 3,31 NYSE +0,68   +25,86 % 22.02. 17:41 223,76 Mio.
© 1997-2018 comdirect bank AG
Bitte beachten Sie die Nutzungsbedingungen
Implemented and powered by FactSet
Mit markierte Kurse werden in Realtime angezeigt. Mit markierte Kurse werden nur für Kunden in Realtime angezeigt.
Alle anderen Kursdaten der deutschen / internationalen Börsen sind 15 bzw. 20 Min. verzögert.